STARLINK-35281

Last updated on Mon Oct 20 2025 00:02:07 GMT+0000 (Coordinated Universal Time)

1 65824U 25221B 25292.25002315 -.01562746 00000+0 -28721-1 0 9998 2 65824 53.1607 27.8571 0001147 90.2939 234.5986 15.51584041 4436
UTC large
Height (km)
Speed (km/s)
/
Latitude / Longitude
Inclination (degrees)
Orbital Period (minutes)
Azimuth
Elevation
Range (km)
Doppler Factor

Next 0 passes for location: London (51.5072 / 0.1276)

Sorry there are no passes over London.